COSMOS 252 DEB, 3898

Orbit data source: Space-Track

COSMOS 252 DEB, 3898 is space debris in LEO originally from a launch on Fri, 01 Nov 1968 UTC launched from the Tyuratam Missile And Space Complex (TTMTR). Debris objects in space refer to the collection of defunct objects orbiting the Earth. Examples of debris include non-operational satellites, rocket bodies, and fragments generated from explosions, collisions, or faulty payload assembly.

Loading next visibility...
Identifier
3898, 1968-097BK
Orbit
LEO
Country
Flag of CISCIS
Related business
Manufacturer
Unknown
Mission
Spacecraft
Bus & Motor
Unknown
Mass
Unknown
Launch date (UTC)
1968-11-01 (57 years ago)
Launch vehicle
Unknown
Launch site
Tyuratam Missile And Space Complex (TTMTR)
Object type
Payload
Rocket body
Debris
Shape & HBR
Unknown shape, 0.1 m
Radar Cross Section
Small (<0.1 m²)

Expand to show TLE details & history
Last TLE update: 8 hours ago

TLE from 8 hours ago
0 COSMOS 252 DEB
1 03898U 68097BK  25343.51879114  .00000979  00000-0  11295-2 0  9996
2 03898  62.2637 112.1527 0755490  38.8832 326.4083 12.89651387648786
Epoch: 2025-12-09T12:27Z
TLE epoch observation values (Epoch: 2025-12-09T12:27:03.554Z)
Latitude
-0.00002°
Longitude
-153.11444°
Altitude
835.88 km
Speed
7.659 km/s
True Right ascension
07h 28m 36s
True Declination
0° 00' 00"
Sunlit
Object was in full shadow at epoch
Visualization orbit readout
Latitude
Unknown
Longitude
Unknown
Altitude
Unknown
Speed
Unknown
Apparent Right ascension
Unknown
Apparent Declination
Unknown
Sunlit
N/A
Visualization observer readout
Local Sidereal Time
19:07:11
Azimuth
Unknown
Elevation
Unknown
Doppler factor
Unknown
Orbital elements
Apogee altitude
1,882.119 km
Perigee altitude
721.681 km
Semi-major axis
7,680.037 km
Eccentricity
0.07555
Inclination
62.2637°
RAAN
112.1527°
Arg. of periapsis
38.8832°
True anomaly
321.21824°
Mean anomaly
326.4083°
Eccentric anomaly
323.85514°
Mean motion
3.22477 °/min
Orbital period
111.64 mins
BSTAR
0.0011295
Loading maneuver chart data...
Computing Atmospheric mass density...

Documentation

Showing up to 5 results
|